Flight Track Log - Related Links

Times and Time Zones

All times are in EDT time to prevent confusion due to time zone crossing. See the FLG3691 flight status page for this flight to view local times or setup timezone preferences in your user account.

Time Position Orientation Groundspeed Altitude Reporting Facility
EDT Latitude Longitude Course Direction KTS MPH feet Rate Location/Type
07:06AM 43.1019 -77.6919 195° South 137 158 1,100  Level Cleveland Center
07:06AM 43.0975 -77.6936 195° South 147 169 1,300 1,818 Climbing Cleveland Center
07:07AM 43.0522 -77.7281 209° Southwest 198 228 3,100 1,562 Climbing Cleveland Center
07:08AM 43.0506 -77.7317 238° Southwest 184 212 3,200 1,600 Climbing Cleveland Center
07:09AM 43.0494 -77.8186 269° West 243 280 5,100 2,780 Climbing Cleveland Center
07:10AM 43.0331 -77.9442 260° West 276 318 8,900 2,780 Climbing Cleveland Center
07:11AM 43.0167 -78.0519 258° West 285 328 10,800 1,951 Climbing Cleveland Center
07:12AM 42.9978 -78.1775 258° West 327 376 12,900 2,195 Climbing Cleveland Center
07:13AM 42.9794 -78.3072 259° West 348 400 15,300 2,195 Climbing Cleveland Center
07:14AM 42.9586 -78.4447 258° West 369 425 17,400 1,902 Climbing Cleveland Center
07:15AM 42.9392 -78.5825 259° West 369 425 19,200 1,268 Climbing Cleveland Center
07:16AM 42.9175 -78.7281 259° West 392 451 20,000 390 Climbing Cleveland Center
07:17AM 42.8953 -78.8789 259° West 406 467 20,000  Level Cleveland Center
07:18AM 42.8700 -79.0572 259° West 402 463 20,000  Level Cleveland Center
07:19AM 42.8472 -79.2086 258° West 409 471 20,000  Level Cleveland Center
07:20AM 42.8247 -79.3589 259° West 408 470 20,000  Level Cleveland Center
07:21AM 42.8025 -79.5081 259° West 405 466 20,000  Level Cleveland Center
07:22AM 42.7794 -79.6572 258° West 405 466 20,000  Level Cleveland Center
07:23AM 42.7564 -79.8061 258° West 404 465 20,000  Level Cleveland Center
07:24AM 42.7447 -79.9811 265° West 401 461 20,000  Level Cleveland Center
07:25AM 42.7392 -80.1336 267° West 400 460 20,000  Level Cleveland Center
07:26AM 42.7328 -80.2861 267° West 398 458 20,000  Level Cleveland Center
07:27AM 42.7264 -80.4344 267° West 397 457 20,000  Level Cleveland Center
07:28AM 42.7197 -80.5844 267° West 397 457 20,000  Level Cleveland Center
07:29AM 42.7131 -80.7347 267° West 396 456 20,000  Level Cleveland Center
07:30AM 42.7067 -80.8883 267° West 400 460 20,000  Level Cleveland Center
07:31AM 42.6906 -81.0353 262° West 396 456 20,000  Level Cleveland Center
07:32AM 42.6736 -81.1831 261° West 393 452 20,000  Level Cleveland Center
07:33AM 42.6558 -81.3308 261° West 393 452 20,000  Level Cleveland Center
07:34AM 42.6383 -81.4764 261° West 393 452 20,000  Level Cleveland Center
07:35AM 42.6186 -81.6464 261° West 392 451 20,000 -683 Level Cleveland Center
07:36AM 42.6019 -81.7889 261° West 379 436 18,600 -1,220 Descending Cleveland Center
07:37AM 42.5858 -81.9208 261° West 359 413 17,500 -1,171 Descending Cleveland Center
07:38AM 42.5692 -82.0547 260° West 359 413 16,200 -1,268 Descending Cleveland Center
07:39AM 42.5533 -82.1867 261° West 359 413 14,900 -1,385 Descending Cleveland Center
07:39AM 42.5503 -82.2039 256° West 356 410 14,700 -1,279 Descending Cleveland Center
07:40AM 42.5372 -82.3153 261° West 353 406 13,600 -1,200 Descending Cleveland Center
07:41AM 42.5214 -82.4389 260° West 338 389 12,300 -1,018 Descending Cleveland Center
07:42AM 42.5006 -82.5625 257° West 346 398 11,700 -581 Descending Cleveland Center
07:42AM 42.5025 -82.5653 314° West 341 392 11,700 -1,082 Level Cleveland Center
07:43AM 42.4636 -82.6681 243° Southwest 303 349 10,600 -1,377 Descending Cleveland Center
07:43AM 42.4561 -82.6911 246° West 309 356 10,300 -1,625 Descending Cleveland Center
07:44AM 42.4406 -82.7556 252° West 278 320 9,300 -1,645 Descending Cleveland Center
07:44AM 42.4336 -82.7922 256° West 285 328 8,600 -1,562 Descending Cleveland Center
07:45AM 42.4156 -82.8681 252° West 270 311 7,400 -1,574 Descending Cleveland Center
07:46AM 42.4117 -82.8889 256° West 273 314 7,000 -1,254 Descending Cleveland Center
07:46AM 42.3931 -82.9753 254° West 260 299 6,000 -968 Descending Cleveland Center
07:47AM 42.3919 -82.9811 256° West 262 302 6,000 -845 Level Cleveland Center
07:48AM 42.3722 -83.0753 254° West 261 300 5,000 -1,200 Descending Cleveland Center
07:48AM 42.3592 -83.1486 256° West 257 296 4,000 -984 Descending Cleveland Center
07:49AM 42.3550 -83.1681 254° West 260 299 4,000 -716 Level Cleveland Center
07:49AM 42.3306 -83.2492 248° West 247 284 3,200 -871 Descending Cleveland Center
07:50AM 42.3258 -83.2564 229° Southwest 260 299 3,100 -971 Descending Cleveland Center
07:50AM 42.2747 -83.2922 207° Southwest 180 207 2,100 -1,065 Descending Cleveland Center
07:51AM 42.2750 -83.2917 56° Northeast 226 260 2,000 -1,000 Descending Cleveland Center
07:51AM 42.2456 -83.3164 212° Southwest 135 155 1,300 -968 Descending Cleveland Center
07:52AM 42.2331 -83.3242 205° Southwest 165 190 1,000 -345 Descending Cleveland Center
07:53AM 42.2000 -83.3492 209° Southwest 160 184 800 -197 Descending Cleveland Center
07:55AM 42.2000 -83.3500 246° West  Level FlightAware Approximate
08:02AM 42.2124 -83.3534 246° West  Level Estimated

Login

Don't have an account? Register now (free) for customized features, flight alerts, and more!